Home > Weather > Pocatello > Past weeks

Flag for USA Weather for the Past 2 Weeks in Pocatello, Idaho, USA

Now
42 °F

Passing clouds.


Feels Like: 39 °F
Forecast: 38 / 59 °F
Wind: 5 mph from Northwest

Location: Pocatello Regional Airport

Current Time: Apr 29, 2016 at 12:38:16 AM

Latest Report: Apr 28, 2016 at 11:53 PM


Visibility: 10 mi

Pressure: 29.84 "Hg (25.27 "Hg at 1357m altitude)

Humidity: 65%

Dew Point: 31 °F

Location of PocatelloLocation

Historic Weather in Pocatello — Graph

°F

Pocatello Temperature Yesterday

Maximum temperature yesterday: 62 °F (at 3:53 PM)
Minimum temperature yesterday: 35 °F (at 5:53 AM)
Average temperature yesterday: 48 °F

High & Low Weather Summary for the Past Weeks

 TemperatureHumidityPressure
High78 °F (Apr 21, 2:53 PM)97% (Apr 15, 8:55 AM)30.37 "Hg (Apr 15, 8:55 AM)
Low29 °F (Apr 16, 5:53 AM)14% (Apr 22, 1:53 PM)29.52 "Hg (Apr 22, 9:53 PM)
Average50 °F58%29.91 "Hg
* Reported Apr 13 10:53 PM — Apr 28 10:53 PM, Pocatello, Weather by CustomWeather, © 2016

Note: Actual official high and low records may vary slightly from our data, if they occured in-between our weather recording intervals... More about our weather records

Advertising

Pocatello Weather History for the Previous 24 Hours

Scroll right to see more
 ConditionsComfort  
Time TempWeatherWind HumidityBarometerVisibility
10:53 PM
Thu, Apr 28
42 °FClear.5 mph68%29.84 "Hg10 mi
9:53 PM43 °FSunny.7 mph62%29.83 "Hg10 mi
8:53 PM50 °FPartly sunny.6 mph46%29.80 "Hg10 mi
7:53 PM56 °FPartly sunny.10 mph37%29.78 "Hg10 mi
6:53 PM57 °FPartly sunny.10 mph34%29.78 "Hg10 mi
5:53 PM61 °FPartly sunny.17 mph30%29.75 "Hg10 mi
4:53 PM58 °FMostly cloudy.12 mph35%29.75 "Hg10 mi
3:53 PM62 °FBroken clouds.13 mph30%29.74 "Hg10 mi
2:53 PM61 °FPartly sunny.9 mph30%29.74 "Hg10 mi
1:53 PM59 °FScattered clouds.9 mph35%29.74 "Hg10 mi
12:53 PM58 °FScattered clouds.10 mph38%29.74 "Hg10 mi
11:53 AM55 °FPassing clouds.13 mph44%29.75 "Hg10 mi
10:53 AM51 °FPassing clouds.15 mph48%29.77 "Hg10 mi
9:53 AM48 °FPassing clouds.18 mph54%29.78 "Hg10 mi
8:53 AM43 °FPassing clouds.15 mph62%29.80 "Hg10 mi
7:53 AM40 °FClear.13 mph68%29.80 "Hg10 mi
6:53 AM35 °FClear.6 mph78%29.78 "Hg10 mi
5:53 AM35 °FClear.5 mph75%29.77 "Hg10 mi
4:53 AM37 °FClear.6 mph73%29.77 "Hg10 mi
3:53 AM37 °FClear.5 mph76%29.77 "Hg10 mi
2:53 AM39 °FClear.8 mph67%29.78 "Hg10 mi
1:53 AM40 °FClear.7 mph68%29.77 "Hg10 mi
12:53 AM42 °FClear.No wind62%29.77 "Hg10 mi
Weather by CustomWeather, © 2016

See weather overviewHow to use our weather pages